• în România
  • Lista ţărilor
  • Pe 7 zile
  • Temperatura apei
  • Hartă satelitară
  • Meteo pe hartă
  • Widget-uri
  • user-avatar
    Intrare

    Meteo pe oră la Elyshevo

    Astăzi, 18 Octombrie, Joi

    Timp Temperatura Precipitaţii Vânt Presiune Umiditate
    00:00 +3°C° 0 mm 4 m/s 752 mmHg 81%
    01:00 +1°C° 0 mm 4 m/s 753 mmHg 83%
    02:00 +1°C° 0 mm 4 m/s 753 mmHg 85%
    03:00 +1°C° 0 mm 4 m/s 753 mmHg 86%
    04:00 0°C° 0 mm 4 m/s 754 mmHg 88%
    05:00 0°C° 0 mm 4 m/s 754 mmHg 89%
    06:00 0°C° 0 mm 4 m/s 754 mmHg 90%
    07:00 -1°C° 0 mm 4 m/s 754 mmHg 92%
    08:00 0°C° 0 mm 4 m/s 754 mmHg 88%
    09:00 +1°C° 0 mm 4 m/s 754 mmHg 85%
    10:00 +2°C° 0 mm 5 m/s 754 mmHg 81%
    11:00 +3°C° 0 mm 4 m/s 754 mmHg 79%
    12:00 +3°C° 0 mm 4 m/s 754 mmHg 76%
    13:00 +4°C° 0 mm 4 m/s 754 mmHg 73%
    14:00 +4°C° 0 mm 4 m/s 754 mmHg 73%
    15:00 +4°C° 0 mm 4 m/s 754 mmHg 73%
    16:00 +4°C° 0 mm 3 m/s 754 mmHg 73%
    17:00 +4°C° 0 mm 3 m/s 754 mmHg 78%
    18:00 +4°C° 0 mm 2 m/s 754 mmHg 82%
    19:00 +3°C° 0 mm 2 m/s 754 mmHg 87%
    20:00 +3°C° 0 mm 2 m/s 753 mmHg 87%
    21:00 +3°C° 0 mm 2 m/s 753 mmHg 88%
    22:00 +3°C° 0 mm 2 m/s 753 mmHg 89%
    23:00 +3°C° 0 mm 2 m/s 752 mmHg 87%

    Mâine, 19 Octombrie, Vineri

    Timp Temperatura Precipitaţii Vânt Presiune Umiditate
    00:00 +3°C° 0 mm 3 m/s 752 mmHg 86%
    01:00 +3°C° 0 mm 3 m/s 751 mmHg 85%
    02:00 +4°C° 0 mm 3 m/s 751 mmHg 85%
    03:00 +4°C° 0 mm 4 m/s 751 mmHg 85%
    04:00 +4°C° 0 mm 4 m/s 750 mmHg 85%
    05:00 +4°C° 0 mm 4 m/s 750 mmHg 87%
    06:00 +4°C° 0 mm 4 m/s 750 mmHg 89%
    07:00 +4°C° 0 mm 4 m/s 749 mmHg 92%
    08:00 +5°C° 0 mm 4 m/s 749 mmHg 92%
    09:00 +5°C° 0 mm 4 m/s 749 mmHg 91%
    10:00 +6°C° 0 mm 4 m/s 749 mmHg 91%
    11:00 +7°C° 0 mm 3 m/s 749 mmHg 91%
    12:00 +7°C° 0 mm 3 m/s 749 mmHg 90%
    13:00 +8°C° 0 mm 3 m/s 749 mmHg 89%
    14:00 +8°C° 0 mm 3 m/s 749 mmHg 90%
    15:00 +8°C° 0 mm 3 m/s 749 mmHg 90%
    16:00 +8°C° 0 mm 3 m/s 749 mmHg 90%
    17:00 +8°C° 0 mm 3 m/s 749 mmHg 91%
    18:00 +8°C° 0 mm 3 m/s 749 mmHg 91%
    19:00 +8°C° 0 mm 3 m/s 748 mmHg 92%
    20:00 +7°C° 0 mm 3 m/s 748 mmHg 93%
    21:00 +7°C° 0 mm 3 m/s 748 mmHg 93%
    22:00 +7°C° 0 mm 3 m/s 748 mmHg 94%
    23:00 +7°C° 0.1 mm 3 m/s 748 mmHg 94%

    Poimâine, 20 Octombrie, Sâmbătă

    Timp Temperatura Precipitaţii Vânt Presiune Umiditate
    00:00 +7°C° 0.1 mm 4 m/s 747 mmHg 94%
    01:00 +7°C° 0.1 mm 4 m/s 747 mmHg 94%
    02:00 +7°C° 0.6 mm 4 m/s 747 mmHg 95%
    03:00 +7°C° 0.6 mm 4 m/s 747 mmHg 96%
    04:00 +8°C° 0.6 mm 4 m/s 746 mmHg 96%
    05:00 +8°C° 1.9 mm 4 m/s 746 mmHg 96%
    06:00 +8°C° 1.9 mm 4 m/s 746 mmHg 96%
    07:00 +8°C° 1.9 mm 4 m/s 745 mmHg 96%
    08:00 +8°C° 2.3 mm 4 m/s 745 mmHg 96%
    09:00 +8°C° 2.3 mm 4 m/s 745 mmHg 96%
    10:00 +8°C° 2.3 mm 4 m/s 745 mmHg 95%
    11:00 +8°C° 1.7 mm 4 m/s 745 mmHg 95%
    12:00 +8°C° 1.7 mm 4 m/s 745 mmHg 94%
    13:00 +8°C° 1.7 mm 4 m/s 744 mmHg 94%
    14:00 +8°C° 1 mm 4 m/s 745 mmHg 92%
    15:00 +8°C° 1 mm 4 m/s 745 mmHg 90%
    16:00 +8°C° 1 mm 4 m/s 745 mmHg 89%
    17:00 +8°C° 0 mm 3 m/s 745 mmHg 89%
    18:00 +7°C° 0 mm 3 m/s 746 mmHg 88%
    19:00 +5°C° 0 mm 3 m/s 746 mmHg 88%
    20:00 +5°C° 0 mm 3 m/s 747 mmHg 89%
    21:00 +4°C° 0 mm 3 m/s 747 mmHg 89%
    22:00 +4°C° 0 mm 2 m/s 748 mmHg 90%
    23:00 +4°C° 0 mm 2 m/s 748 mmHg 91%

    21 Octombrie, Duminică

    Timp Temperatura Precipitaţii Vânt Presiune Umiditate
    00:00 +4°C° 0 mm 2 m/s 748 mmHg 92%
    01:00 +4°C° 0 mm 2 m/s 749 mmHg 93%
    02:00 +3°C° 0 mm 2 m/s 749 mmHg 94%
    03:00 +3°C° 0 mm 2 m/s 749 mmHg 94%
    04:00 +3°C° 0 mm 2 m/s 749 mmHg 95%
    05:00 +3°C° 0 mm 2 m/s 750 mmHg 95%
    06:00 +3°C° 0 mm 2 m/s 750 mmHg 96%
    07:00 +2°C° 0 mm 2 m/s 750 mmHg 96%
    08:00 +3°C° 0 mm 2 m/s 751 mmHg 94%
    09:00 +3°C° 0 mm 3 m/s 751 mmHg 92%
    10:00 +4°C° 0 mm 3 m/s 751 mmHg 90%
    11:00 +4°C° 0 mm 3 m/s 752 mmHg 89%
    12:00 +5°C° 0 mm 3 m/s 752 mmHg 87%
    13:00 +5°C° 0 mm 3 m/s 752 mmHg 86%
    14:00 +5°C° 0 mm 3 m/s 752 mmHg 86%
    15:00 +5°C° 0 mm 3 m/s 753 mmHg 85%
    16:00 +5°C° 0 mm 3 m/s 753 mmHg 85%
    17:00 +4°C° 0 mm 3 m/s 753 mmHg 86%
    18:00 +4°C° 0 mm 3 m/s 754 mmHg 87%
    19:00 +3°C° 0 mm 3 m/s 754 mmHg 89%
    20:00 +4°C° 0 mm 2 m/s 754 mmHg 89%
    21:00 +3°C° 0 mm 2 m/s 754 mmHg 90%
    22:00 +2°C° 0 mm 2 m/s 755 mmHg 90%
    23:00 +2°C° 0 mm 2 m/s 755 mmHg 90%

    22 Octombrie, Luni

    Timp Temperatura Precipitaţii Vânt Presiune Umiditate
    00:00 +1°C° 0 mm 2 m/s 755 mmHg 90%
    01:00 +1°C° 0 mm 2 m/s 755 mmHg 91%
    02:00 +2°C° 0 mm 1 m/s 756 mmHg 90%
    03:00 +1°C° 0 mm 1 m/s 756 mmHg 90%
    04:00 +1°C° 0 mm 1 m/s 756 mmHg 90%
    05:00 +1°C° 0 mm 1 m/s 756 mmHg 90%
    06:00 +1°C° 0 mm 1 m/s 756 mmHg 89%
    07:00 +1°C° 0 mm 1 m/s 757 mmHg 89%
    08:00 +1°C° 0 mm 1 m/s 757 mmHg 83%
    09:00 +2°C° 0 mm 1 m/s 757 mmHg 76%
    10:00 +3°C° 0 mm 1 m/s 757 mmHg 70%
    11:00 +4°C° 0 mm 1 m/s 757 mmHg 67%
    12:00 +4°C° 0 mm 1 m/s 757 mmHg 64%
    13:00 +5°C° 0 mm 1 m/s 757 mmHg 60%
    14:00 +5°C° 0 mm 1 m/s 757 mmHg 63%
    15:00 +5°C° 0 mm 1 m/s 756 mmHg 67%
    16:00 +4°C° 0 mm 1 m/s 756 mmHg 70%
    17:00 +4°C° 0 mm 1 m/s 756 mmHg 73%
    18:00 +3°C° 0 mm 1 m/s 756 mmHg 76%
    19:00 +2°C° 0 mm 1 m/s 756 mmHg 80%
    20:00 +1°C° 0 mm 2 m/s 756 mmHg 81%
    21:00 +1°C° 0 mm 2 m/s 756 mmHg 82%
    22:00 +1°C° 0 mm 2 m/s 756 mmHg 84%
    23:00 0°C° 0 mm 3 m/s 755 mmHg 84%

    23 Octombrie, Marţi

    Timp Temperatura Precipitaţii Vânt Presiune Umiditate
    00:00 0°C° 0 mm 3 m/s 755 mmHg 84%
    01:00 0°C° 0 mm 3 m/s 755 mmHg 84%
    02:00 0°C° 0 mm 3 m/s 755 mmHg 85%
    03:00 0°C° 0 mm 3 m/s 755 mmHg 85%
    04:00 -1°C° 0 mm 4 m/s 754 mmHg 86%
    05:00 -1°C° 0 mm 4 m/s 754 mmHg 86%
    06:00 -1°C° 0 mm 4 m/s 754 mmHg 87%
    07:00 -1°C° 0 mm 4 m/s 754 mmHg 88%
    08:00 0°C° 0 mm 4 m/s 754 mmHg 84%
    09:00 +1°C° 0 mm 5 m/s 754 mmHg 80%
    10:00 +2°C° 0 mm 5 m/s 753 mmHg 76%
    11:00 +3°C° 0 mm 5 m/s 753 mmHg 73%
    12:00 +5°C° 0 mm 5 m/s 753 mmHg 71%
    13:00 +6°C° 0 mm 5 m/s 753 mmHg 68%
    14:00 +5°C° 0 mm 5 m/s 753 mmHg 70%
    15:00 +5°C° 0 mm 4 m/s 753 mmHg 72%
    16:00 +5°C° 0 mm 4 m/s 752 mmHg 74%
    17:00 +4°C° 0 mm 4 m/s 753 mmHg 76%
    18:00 +4°C° 0 mm 4 m/s 753 mmHg 79%
    19:00 +3°C° 0 mm 4 m/s 753 mmHg 82%
    20:00 +3°C° 0 mm 4 m/s 753 mmHg 82%
    21:00 +3°C° 0 mm 4 m/s 753 mmHg 82%
    22:00 +3°C° 0 mm 4 m/s 753 mmHg 82%
    23:00 +3°C° 0 mm 4 m/s 753 mmHg 82%
    Arată mai mult